,,PA_Meas_PMT16A,,PR_Meas_QMR101_102,,RH_Meas_QMH101,,SR_Meas_QMS101,,TA_Meas_QMH101,,GenWind,,GenWind,
time,status,PA,status,PR,status,RH,status,SR,status,TA,status,DirAvg,status,SpdAvg,
2016-08-12, 00:00:04,VALID,918.06,VALID,0,VALID,89.7276,VALID,113.673,VALID,22.8014,INVALID,360,VALID,0.145313,
2016-08-12, 00:01:04,VALID,918.116,VALID,0,VALID,88.7213,VALID,114.962,VALID,22.8226,VALID,61,VALID,0,
2016-08-12, 00:02:04,VALID,918.124,VALID,0,VALID,88.9119,VALID,110.879,VALID,22.8616,VALID,25,VALID,0.113281,
2016-08-12, 00:03:04,VALID,918.184,VALID,0,VALID,89.415,VALID,108.623,VALID,22.8616,VALID,16,VALID,0.277344,
2016-08-12, 00:04:04,VALID,918.208,VALID,0,VALID,91.2828,VALID,102.821,VALID,22.8599,VALID,24,VALID,0.00078125,
2016-08-12, 00:05:04,VALID,918.107,VALID,0,VALID,87.898,VALID,96.4822,VALID,22.8616,VALID,192,VALID,0.125391,
2016-08-12, 00:06:04,VALID,918.18,VALID,0,VALID,88.7137,VALID,93.7961,VALID,22.8404,VALID,13,VALID,0.84375,
2016-08-12, 00:07:04,VALID,918.138,VALID,0,VALID,91.824,VALID,90.0357,VALID,22.8404,VALID,17,VALID,0.00195313,
2016-08-12, 00:08:04,VALID,918.165,VALID,0,VALID,92.6702,VALID,84.8785,VALID,22.9202,VALID,16,VALID,1.5168,
2016-08-12, 00:09:04,VALID,918.154,VALID,0,VALID,85.0773,VALID,77.5725,VALID,22.8421,VALID,351,VALID,0.950781,
2016-08-12, 00:10:04,VALID,918.165,VALID,0,VALID,87.3796,VALID,70.1591,VALID,22.7818,VALID,15,VALID,2.43672,
2016-08-12, 00:11:04,VALID,918.179,VALID,0,VALID,85.0468,VALID,63.6052,VALID,22.7428,VALID,27,VALID,1.4543,
2016-08-12, 00:12:04,VALID,918.225,VALID,0,VALID,85.7939,VALID,60.9191,VALID,22.7038,VALID,307,VALID,0.0078125,
2016-08-12, 00:13:04,VALID,918.217,VALID,0,VALID,87.372,VALID,57.5885,VALID,22.6452,VALID,13,VALID,0.0195313,
2016-08-12, 00:14:04,VALID,918.188,VALID,0,VALID,88.1267,VALID,56.0843,VALID,22.5867,VALID,348,VALID,0,
2016-08-12, 00:15:04,VALID,918.23,VALID,0,VALID,88.9653,VALID,52.2164,VALID,22.5477,VALID,37,VALID,0.425781,
2016-08-12, 00:16:04,VALID,918.199,VALID,0,VALID,91.3514,VALID,52.0015,VALID,22.5281,VALID,14,VALID,0.0414063,
2016-08-12, 00:17:04,VALID,918.217,VALID,0,VALID,90.1316,VALID,52.2164,VALID,22.4696,VALID,337,VALID,0,
2016-08-12, 00:18:04,VALID,918.17,VALID,0,VALID,91.359,VALID,53.0759,VALID,22.4501,VALID,42,VALID,1.95117,
2016-08-12, 00:19:04,VALID,918.207,VALID,0,VALID,89.3236,VALID,54.5801,VALID,22.4111,VALID,36,VALID,0,
2016-08-12, 00:20:04,VALID,918.177,VALID,0,VALID,87.5778,VALID,57.3736,VALID,22.4111,VALID,24,VALID,0.713672,
2016-08-12, 00:21:04,VALID,918.156,VALID,0,VALID,86.4495,VALID,57.3736,VALID,22.372,VALID,257,VALID,0,
2016-08-12, 00:22:04,VALID,918.183,VALID,0,VALID,86.8764,VALID,58.448,VALID,22.372,VALID,182,VALID,0,
2016-08-12, 00:23:04,VALID,918.198,VALID,0,VALID,87.4101,VALID,60.9191,VALID,22.372,VALID,161,VALID,0,
2016-08-12, 00:24:04,VALID,918.211,VALID,0,VALID,89.0034,VALID,62.4233,VALID,22.4306,VALID,161,VALID,0,
2016-08-12, 00:25:04,VALID,918.141,VALID,0,VALID,88.5307,VALID,62.101,VALID,22.4306,VALID,59,VALID,0,
2016-08-12, 00:26:04,VALID,918.179,VALID,0,VALID,89.7886,VALID,60.8117,VALID,22.3916,VALID,24,VALID,1.23125,
2016-08-12, 00:27:04,VALID,918.197,VALID,0,VALID,90.4366,VALID,58.9852,VALID,22.4111,VALID,3,VALID,0.382422,
2016-08-12, 00:28:04,VALID,918.207,VALID,0,VALID,86.2589,VALID,57.2661,VALID,22.4323,VALID,19,VALID,0.280859,
2016-08-12, 00:29:04,VALID,918.208,VALID,0,VALID,87.7913,VALID,55.3322,VALID,22.333,VALID,32,VALID,0.966406,
2016-08-12, 00:30:04,VALID,918.167,VALID,0,VALID,89.8953,VALID,54.0429,VALID,22.3152,VALID,27,VALID,0.125781,
2016-08-12, 00:31:04,VALID,918.276,VALID,0,VALID,88.546,VALID,53.9355,VALID,22.255,VALID,321,VALID,1.63672,
2016-08-12, 00:32:04,VALID,918.191,VALID,0,VALID,96.5429,VALID,54.2578,VALID,22.1981,VALID,16,VALID,1.39648,
2016-08-12, 00:33:04,VALID,918.202,VALID,0,VALID,95.2241,VALID,55.762,VALID,22.1591,VALID,20,VALID,1.08789,
2016-08-12, 00:34:04,VALID,918.172,VALID,0,VALID,94.7286,VALID,56.0843,VALID,22.0989,VALID,338,VALID,0.264844,
2016-08-12, 00:35:04,VALID,918.263,VALID,0,VALID,96.8326,VALID,52.861,VALID,22.0794,VALID,9,VALID,0.994141,
2016-08-12, 00:37:04,VALID,918.624,VALID,0,VALID,100.439,VALID,44.2658,VALID,22.081,VALID,18,VALID,1.48516,
2016-08-12, 00:38:04,VALID,918.428,VALID,0,VALID,103.328,VALID,40.7202,VALID,22.081,VALID,36,VALID,0.0632813,
2016-08-12, 00:40:04,VALID,920.089,VALID,0,VALID,98.3039,VALID,34.1663,VALID,22.081,VALID,19,VALID,0.330078,
2016-08-12, 00:41:04,VALID,919.276,VALID,0,VALID,99.8591,VALID,32.0175,VALID,22.0403,VALID,9,VALID,0.882813,
2016-08-12, 23:15:04,VALID,917.372,VALID,0,VALID,72.979,VALID,48.0262,VALID,23.7169,VALID,261,VALID,0.10625,
2016-08-12, 23:16:04,VALID,917.265,VALID,0,VALID,73.1619,VALID,55.1173,VALID,23.6584,VALID,239,VALID,0.570313,
2016-08-12, 23:17:04,VALID,917.258,VALID,0,VALID,73.8252,VALID,63.068,VALID,23.5803,VALID,252,VALID,0,
2016-08-12, 23:18:04,VALID,917.274,VALID,0,VALID,74.2292,VALID,69.1921,VALID,23.543,VALID,249,VALID,0.591797,
2016-08-12, 23:19:04,VALID,917.262,VALID,0,VALID,74.6256,VALID,70.9112,VALID,23.5235,VALID,252,VALID,0.385938,
2016-08-12, 23:20:04,VALID,917.279,VALID,0,VALID,75.3803,VALID,68.6549,VALID,23.4632,VALID,265,VALID,0,
2016-08-12, 23:21:04,VALID,917.283,VALID,0,VALID,74.679,VALID,65.9689,VALID,23.4241,VALID,247,VALID,1.38008,
2016-08-12, 23:22:04,VALID,917.311,VALID,0,VALID,74.0691,VALID,62.8531,VALID,23.3851,VALID,246,VALID,2.23516,
2016-08-12, 23:23:04,VALID,917.317,VALID,0,VALID,74.74,VALID,59.0926,VALID,23.307,VALID,252,VALID,0.212891,
2016-08-12, 23:24:04,VALID,917.314,VALID,0,VALID,75.388,VALID,55.2248,VALID,23.3265,VALID,221,VALID,0,
2016-08-12, 23:25:04,VALID,917.335,VALID,0,VALID,75.3956,VALID,52.0015,VALID,23.3656,VALID,228,VALID,0.00390625,
2016-08-12, 23:31:04,VALID,918.243,VALID,0,VALID,75.4185,VALID,42.2244,VALID,23.229,VALID,253,VALID,0.428906,
2016-08-12, 23:32:04,VALID,917.727,VALID,0,VALID,75.3117,VALID,37.6044,VALID,23.2112,VALID,255,VALID,0.203906,
2016-08-12, 23:50:04,VALID,917.656,VALID,0,VALID,87.1204,VALID,79.6139,VALID,22.7233,VALID,56,VALID,0.357422,
2016-08-12, 23:51:04,VALID,917.638,VALID,0,VALID,89.9258,VALID,87.0273,VALID,22.6843,VALID,66,VALID,0,
2016-08-12, 23:52:04,VALID,917.69,VALID,0,VALID,104,VALID,97.1268,VALID,22.7055,VALID,10,VALID,0.0105469,
2016-08-12, 23:53:04,VALID,917.71,VALID,0,VALID,102.604,VALID,106.474,VALID,22.5689,VALID,282,VALID,0,
2016-08-12, 23:54:04,VALID,917.698,VALID,0,INVALID,110.608,VALID,115.392,VALID,22.4501,VALID,32,VALID,1.19961,
2016-08-12, 23:55:04,VALID,917.698,VALID,0,INVALID,110.738,VALID,117.218,VALID,22.3347,VALID,28,VALID,2.41211,
2016-08-12, 23:56:04,VALID,917.695,VALID,0,INVALID,112.598,VALID,108.73,VALID,22.2567,VALID,19,VALID,1.20859,
2016-08-12, 23:57:04,VALID,917.686,VALID,0,INVALID,112.666,VALID,93.4738,VALID,22.1964,VALID,13,VALID,0.171875,
2016-08-12, 23:58:04,VALID,917.703,VALID,0,INVALID,112.705,VALID,78.0023,VALID,22.1201,VALID,13,VALID,2.12969,
2016-08-12, 23:59:04,VALID,917.736,VALID,0,INVALID,112.933,VALID,61.6712,VALID,21.964,VALID,17,VALID,1.55234,
